www.pogodaiklimat.ru

Погода и климат >> Архив погоды >> Греция >> Kerkyra


ПОГОДА в Kerkyra

  • Прогноз погоды в Kerkyra
  • Монитор погоды в Kerkyra
  • Климат города

АРХИВ ПОГОДЫ в Kerkyra

Время (UTC), дата Ветер
(напр.,м/с)
 
Видим.   Явления Облачность Т
(С)
Тd
(С)
f
(%)
Тe
(С)
Тes
(С)
Комфортность P
(гПа)
Po
(гПа)
Тmin
(С)
Tmax
(С)
R
(мм)
R24
(мм)
S
(см)
00 9.12 З 3
{10}
10 км {гроза, ливн. осадки} 4/3 1050 м
[Sc diur, vesp Ac und]
+13.2 +9.7 79 +12 +12 1011.4 1010.9 9
03 9.12 З 4
{7}
10 км 5/4 600 м
[Cu Sc Ac und]
+12.4 +10.1 86 +10 +10 1011.4 1010.9
06 9.12 СЗ 6 15 км {дождь} 6/6 600 м
[Cu Sc Ac und]
+13.0 +10.3 84 +11 +11 1011.9 1011.4 +11.6 9
09 9.12 СЗ 6
{11}
10 км 6/5 600 м
[Cu med, cong Ac und]
+15.2 +9.0 66 +14 +14 1013.0 1012.5
12 9.12 З 7
{10}
20 км 6/4 600 м
[Cu Sc Ac und]
+16.2 +9.3 64 +15 +15 1012.2 1011.6
15 9.12 З 4
{9}
20 км 5/4 600 м
[Cu hum Ac lent]
+15.0 +9.2 68 +14 +14 1012.0 1011.5
18 9.12 штиль 0
{4}
10 км 4/4 600 м
[Cu hum]
+11.6 +7.9 78 +11 +11 1011.8 1011.3 +16.2
21 9.12 ЮВ 5
{8}
10 км слабый дождь 9/6 600 м
[Cu Sc Ac As]
+13.4 +9.9 79 +11 +11 1010.5 1009.9
00 10.12 Ю 6
{10}
7000 м гроза, ливневой дождь 9/8 540 м
[Cb cap Ac As]
+13.0 +11.1 88 +10 +10 1006.9 1006.3 12
03 10.12 штиль 0
{9}
10 км гроза, ливневой дождь 9/8 540 м
[Cb cap Ac As]
+11.4 +10.6 95 +11 +11 1005.6 1005.1
06 10.12 штиль 0 15 км {гроза} 9/5 540 м
[Cu Sc Ac As]
+11.2 +10.4 95 +10 +10 1005.0 1004.5 +10.2 24
09 10.12 СЗ 6
{11}
20 км 5/5 540 м
[Cu Sc]
+15.6 +7.7 59 +14 +15 1007.1 1006.6
12 10.12 С 9
{15}
20 км 6/4 540 м
[Cu hum Cs]
+17.0 +6.0 48 +16 +16 1007.8 1007.3
15 10.12 СЗ 9
{14}
20 км 6/4 540 м
[Cu hum Cs]
+15.4 +4.9 50 +13 +13 1008.2 1007.6
18 10.12 З 5
{11}
10 км 6/4 540 м
[Cu hum Cs]
+13.2 +6.1 62 +11 +11 1009.3 1008.7 +17.2
21 10.12 З 2
{4}
10 км 4/4 300 м
[Cu hum]
+8.6 +5.0 78 +7 +7 1010.3 1009.8
00 11.12 З 2
{3}
10 км 4/4 300 м
[Cu hum]
+7.6 +5.4 86 +6 +6 1010.3 1009.8
03 11.12 З 2
{3}
10 км 4/4 300 м
[Cu hum]
+6.6 +5.2 91 +5 +5 1010.5 1009.9
06 11.12 З 2 20 км 5/4 540 м
[Cu hum Ac trans]
+4.8 +3.8 93 +3 +3 1010.9 1010.3 +4.8
09 11.12 штиль 0
{3}
20 км 9/1 750 м
[Cu med, cong Ac und Cs]
+10.2 +5.9 75 +10 +12 1012.2 1011.6
12 11.12
{6}
20 км 5/1 600 м
[Cu med, cong Ac trans Cs]
+15.2 +2.2 41 1011.8 1011.3
15 11.12 З 5
{8}
20 км 1/1 600 м
[Cu hum]
+13.2 -1.0 37 +12 +12 1012.5 1011.9
18 11.12 СЗ 4
{8}
10 км 1/1 1000 м
[Cu hum]
+10.0 -1.2 46 +8 +8 1014.2 1013.6 +15.6
21 11.12 СЗ 4
{8}
10 км ясно +10.0 -1.9 43 +8 +8 1015.9 1015.4
00 12.12 ЮЗ 2
{5}
10 км ясно +9.4 -7.2 30 +8 +8 1016.3 1015.8
03 12.12 СЗ 1
{4}
10 км 3/3 1000 м
[Sc diur, vesp]
+3.4 +0.2 80 +2 +2 1017.4 1016.9
06 12.12 З 1
{3}
20 км 3/3 1000 м
[Sc diur, vesp]
+3.4 +0.2 80 +2 +2 1018.2 1017.6 +3.0
09 12.12 штиль 0
{2}
20 км 3/3 600 м
[Cu hum]
+10.4 +1.9 56 +10 +13 1019.6 1019.1
12 12.12 штиль 0
{3}
20 км 4/4 600 м
[Cu hum]
+12.6 +1.4 46 +12 +16 1019.1 1018.6
15 12.12 З 3
{8}
20 км 5/4 600 м
[Cu hum Ci fib]
+11.6 +1.2 49 +10 +10 1019.3 1018.7
18 12.12 штиль 0
{3}
10 км 4/3 600 м
[Cu hum Ci fib]
+6.8 +3.0 77 +6 +6 1019.6 1019.1 +14.0
21 12.12 штиль 0
{2}
10 км 6/4 750 м
[Cu hum Ac trans Cs]
+4.6 +2.6 87 +4 +4 1019.6 1019.1
00 13.12 З 2
{4}
10 км 8/4 750 м
[Sc Ac und Cs]
+6.8 +3.5 79 +5 +5 1019.4 1018.9
03 13.12 В 4
{6}
10 км дождь 9/6 540 м
[Cu Sc Ac As]
+8.8 +5.7 81 +6 +6 1018.9 1018.3
06 13.12 ЮВ 3 10 км слабый дождь 10/6 600 м
[Cu Sc As op]
+8.4 +4.8 78 +6 +6 1017.8 1017.3 +4.6 5
09 13.12 В 2
{7}
20 км {дождь} 10/8 600 м
[Cu Sc As op]
+10.2 +4.9 70 +9 +9 1016.2 1015.6
12 13.12 ЮВ 4
{7}
20 км {дождь} 10/6 600 м
[Cu Sc As op]
+12.0 +4.6 61 +10 +11 1014.7 1014.2 0.0
15 13.12 В 3
{6}
20 км 10/8 600 м
[Cu Sc As op]
+12.2 +6.8 70 +11 +11 1013.9 1013.4
18 13.12 В 3
{7}
10 км дождь 10/6 600 м
[Cu Sc As op]
+11.0 +7.7 80 +9 +9 1013.8 1013.3 +12.4 3
21 13.12 ЮВ 3
{7}
8000 м слабый дождь 10/8 540 м
[Cu Sc As op]
+12.2 +10.3 88 +11 +11 1013.9 1013.4
00 14.12 ЮВ 4
{8}
10 км в посл. час дождь 10/6 540 м
[Cu Sc As op]
+12.6 +9.0 79 +11 +11 1013.9 1013.4 4
03 14.12 ЮВ 5
{8}
10 км 9/6 540 м
[Cu Sc As op]
+14.4 +11.4 82 +13 +13 1013.8 1013.3
06 14.12 ЮВ 5 20 км 9/6 480 м
[Cu Sc Ac und]
+14.4 +11.8 84 +13 +13 1013.5 1013.0 +11.0 2
09 14.12 ЮВ 5
{9}
5000 м слабый дождь 9/6 240 м
[St Ac As]
+14.2 +12.4 89 +12 +13 1014.0 1013.5
12 14.12 ЮВ 8
{12}
10 км {дождь} 9/6 240 м
[St Ac As]
+16.8 +13.3 80 +15 +15 1013.4 1012.9 10
15 14.12 ЮВ 6
{12}
8000 м слабый дождь 9/6 450 м
[Cb cap Ac As]
+15.6 +12.7 83 +14 +14 1013.1 1012.6
18 14.12 Ю 5
{10}
10 км {дождь} 9/6 240 м
[Frnb Ac As]
+16.4 +12.4 77 +16 +16 1013.9 1013.4 +16.8 10
21 14.12 ЮВ 7
{11}
10 км 9/6 240 м
[Frnb Ac As]
+17.0 +13.1 78 +16 +16 1013.9 1013.4
00 15.12 ЮВ 7
{10}
10 км гроза без осадков 9/6 450 м
[Cb cap Ac As]
+16.8 +11.7 72 +16 +16 1012.6 1012.0
03 15.12 ЮВ 12
{17}
10 км гроза без осадков 9/6 450 м
[Cb cap Ac As]
+16.4 +12.4 77 +14 +14 1011.4 1010.9
06 15.12 Ю 8 6000 м гроза, ливневой дождь 9/8 300 м
[Cb cap Ac As]
+13.4 +12.7 96 +11 +11 1011.4 1010.9 +13.4 11
09 15.12 В 4
{9}
10 км гроза, ливневой дождь 10/8 360 м
[Cb cap As op]
+13.0 +11.9 93 +11 +11 1012.2 1011.6
12 15.12 В 3
{12}
7000 м гроза, ливневой дождь 10/8 360 м
[Cb cap As op]
+12.6 +11.1 91 +11 +11 1011.8 1011.3 18
15 15.12 ЮВ 2
{5}
4500 м гроза, ливневой дождь 10/8 330 м
[Cb cap As op]
+12.2 +10.3 88 +12 +12 1011.9 1011.4
18 15.12 В 4
{9}
10 км в посл. час дождь {гроза} 10/4 360 м
[Frnb Ac und Cs]
+12.6 +10.7 88 +11 +11 1011.8 1011.3 +13.6 41
21 15.12 В 3
{7}
10 км 8/0
[Ac und Cs]
+13.2 +9.7 79 +12 +12 1011.8 1011.3

 

Местоположение метеостанции Kerkyra (Греция): широта 39.62 долгота 19.92 высота над уровнем моря 4 м.

В архиве по умолчанию представлена погода в Kerkyra за последнюю неделю. Архивные данные за месяц целиком и за предыдущие месяцы, начиная с января 2011 года, Вы можете получить, выбрав интересующий диапазон дат из раскрывающегося списка и нажав кнопку "Ввод!".


*Определитесь, кто Вы:
робот инопланетянин человек

Внимание! Время в таблицах - всемирное. Для получения местного времени необходимо прибавить поправку, которая в Kerkyra равна 2 ч.

Смотрите также архив погоды в соседних городах и на ближайших метеорологических станциях:

Погода в Saranda (Албания) (30 км)
Погода в Gjirokastra (Албания) (55 км)
Погода в Ioannina (Греция) (78 км)
Погода в Vlore (Албания) (102 км)
Погода в Sazan Island (Албания) (112 км)
Погода в Korca (Албания) (131 км)
Погода в Qyteti Stalin (Албания) (131 км)
Погода в Aktion (Греция) (133 км)
Погода в Otranto (Италия) (134 км)
Погода в S. maria di Leuca (Италия) (136 км)

Пояснения к столбцам:

Ветер - указаны скорость ветра в м/с - средняя за 10 мин, порывы в срок и между сроками (в фигурных скобках) и направление, откуда дует ветер: С - северный, СВ - северо-восточный, В - восточный, ЮВ - юго-восточный, Ю - южный, ЮЗ - юго-западный, З - западный, СЗ - северо-западный.
Видимость - горизонтальная дальность видимости в метрах или километрах. При видимости от 1 до 10 км при отсутствии осадков обычно наблюдается дымка, при ухудшении видимости до 1 км и менее - туман. В сухую погоду видимость может ухудшаться дымом, пылью или мглою.
Явления - указаны атмосферные явления, наблюдавшиеся в срок или в последний час перед сроком; фигурными скобками обозначены явления, наблюдавшиеся между сроками (за 1-3 часа до срока); квадратными скобками обозначены град или гололедные отложения с указанием их диаметра в мм.
Облачность - указаны через наклонную черту общая и нижняя облачность в баллах и высота нижней границы облаков в метрах; квадратными скобками обозначены формы облаков: Ci - перистые, Cs - перисто-слоистые, Cc - перисто-кучевые, Ac - высококучевые, As - высокослоистые, Sc - слоисто-кучевые, Ns - слоисто-дождевые, Cu - кучевые, Cb - кучево-дождевые. Подробнее классификацию облаков см. в Атласе облаков (PDF).
T - Температура воздуха - температура, измеренная на высоте 2 м над землей.
Td - Температура точки росы - температура, при понижении до которой содержащийся в воздухе водяной пар достигнет насыщения.
f - Относительная влажность воздуха - влажноcть воздуха, измеренная на высоте 2 м над землей.
Te - Эффективная температура - температура, которую ощущает одетый по сезону человек в тени. Характеристика душности погоды. При расчете учитывается влияние влажности воздуха и скорости ветра на теплоощущения человека.
Tes - Эффективная температура на солнце - температура, которую ощущает человек, с поправкой на солнечный нагрев. Характеристика знойности погоды. Зависит от высоты солнца над горизонтом, облачности и скорости ветра. Ночью, в пасмурную погоду, а также при ветре 12 м/с и более поправка равна нулю.
P - Атмосферное давление - приведенное к уровню моря атмосферное давление.
Po - Атмосферное давление - измеренное на уровне метеостанции атмосферное давление.
Tmin - Минимальная температура - минимум температуры воздуха на высоте 2 м над землей.
Tmax - Максимальная температура - максимум температуры воздуха на высоте 2 м над землей.
R - Количество осадков - Количество выпавших осадков за период времени, мм. При наведении курсора мыши на число - период времени, за который выпало указанное количество осадков.
R24 - Количество осадков - Количество выпавших осадков за 24 часа, мм.
S - Снежный покров - Высота снежного покрова, см. При наведении курсора мыши на число - состояние снежного покрова и степень покрытия местности в баллах.